{"data":{"norad_id":64300,"intl_designator":"2025-123K","name":"STARLINK-34376","alt_names":[],"object_type":"PAYLOAD","status":"ACTIVE","operator":null,"country":"US","launch_date":"2025-06-08","launch_site_code":"AFWTR","launch_vehicle":null,"mission":null,"orbit_class":"UNKNOWN","rcs_meters":null,"size_class":null,"mass_kg":null,"dimensions":null,"purposes":["comms"],"wikipedia_slug":null,"has_3d_model":false,"image_url":null,"decayed_at":null,"tle_current":{"epoch":"2026-09-20T14:19:49.810656Z","epoch_age_seconds":129286,"freshness":"FRESH","line1":"1 64300U 25123K   26263.59710429  .00011122  00000+0  39067-3 0  9996","line2":"2 64300  70.0001  60.6436 0003201 269.8255  90.2553 15.29587653 70878","mean_motion":15.29587653,"eccentricity":0.0003201,"inclination_deg":70.0001,"raan_deg":60.6436,"arg_perigee_deg":269.8255,"mean_anomaly_deg":90.2553,"bstar":0.00039067,"rev_number":7087,"period_min":94.143019340913,"perigee_km":474.84969367047,"apogee_km":479.23838057043,"semimajor_km":6855.1810371204,"source":"CELESTRAK","updated_at":"2026-09-21T09:00:35.306727Z"}}}